{"data":{"norad_id":56116,"intl_designator":"2023-046Z","name":"STARLINK-6114","alt_names":[],"object_type":"PAYLOAD","status":"ACTIVE","operator":null,"country":"US","launch_date":"2023-03-29","launch_site_code":"AFETR","launch_vehicle":null,"mission":null,"orbit_class":"UNKNOWN","rcs_meters":null,"size_class":null,"mass_kg":null,"dimensions":null,"purposes":["comms"],"wikipedia_slug":null,"has_3d_model":false,"image_url":null,"decayed_at":null,"tle_current":{"epoch":"2026-09-20T09:23:11.079744Z","epoch_age_seconds":118065,"freshness":"FRESH","line1":"1 56116U 23046Z   26263.39110046 -.00000379  00000+0 -42510-5 0  9994","line2":"2 56116  43.0027 142.4024 0001836 264.8156  95.2486 15.27573517191800","mean_motion":15.27573517,"eccentricity":0.0001836,"inclination_deg":43.0027,"raan_deg":142.4024,"arg_perigee_deg":264.8156,"mean_anomaly_deg":95.2486,"bstar":-4.251e-6,"rev_number":19180,"period_min":94.267148780375,"perigee_km":481.80879121119,"apogee_km":484.32822587392,"semimajor_km":6861.2055085426,"source":"CELESTRAK","updated_at":"2026-09-21T09:00:33.384846Z"}}}